| time (UTC) | temp F | wind direction | speed MPH | gust MPH | rain 1hr in | rain 24hr in | rain mn in | humidity % | barometer mb |
| 20260504191614 | 72 | 256 | 3.0 | 7.0 | 0.00 | 0.00 | 0.00 | 50 | 1009.3 |
| 20260504191109 | 73 | 188 | 3.0 | 7.0 | 0.00 | 0.00 | 0.00 | 52 | 1009.4 |
| 20260504190605 | 72 | 205 | 2.0 | 9.0 | 0.00 | 0.00 | 0.00 | 50 | 1009.5 |
| 20260504185559 | 73 | 233 | 4.0 | 9.0 | 0.00 | 0.00 | 0.00 | 50 | 1009.7 |
| 20260504185055 | 73 | 181 | 2.0 | 7.0 | 0.00 | 0.00 | 0.00 | 50 | 1009.5 |
| 20260504184551 | 73 | 200 | 4.0 | 6.0 | 0.00 | 0.00 | 0.00 | 50 | 1009.6 |
| 20260504184046 | 72 | 137 | 1.0 | 4.0 | 0.00 | 0.00 | 0.00 | 53 | 1009.6 |
| 20260504183543 | 72 | 212 | 3.0 | 4.0 | 0.00 | 0.00 | 0.00 | 51 | 1009.8 |
| 20260504183042 | 71 | 272 | 4.0 | 9.0 | 0.00 | 0.00 | 0.00 | 51 | 1009.9 |
| 20260504182538 | 71 | 99 | 4.0 | 4.0 | 0.00 | 0.00 | 0.00 | 53 | 1009.8 |
| 20260504182036 | 71 | 97 | 2.0 | 4.0 | 0.00 | 0.00 | 0.00 | 54 | 1009.8 |
| 20260504181532 | 71 | 87 | 3.0 | 6.0 | 0.00 | 0.00 | 0.00 | 52 | 1010.1 |
| 20260504181031 | 70 | 240 | 4.0 | 7.0 | 0.00 | 0.00 | 0.00 | 53 | 1010.2 |
| 20260504180529 | 70 | 197 | 2.0 | 6.0 | 0.00 | 0.00 | 0.00 | 55 | 1010.1 |
| 20260504180028 | 70 | 156 | 4.0 | 7.0 | 0.00 | 0.00 | 0.00 | 54 | 1009.8 |
| 20260504175525 | 71 | 170 | 4.0 | 7.0 | 0.00 | 0.00 | 0.00 | 52 | 1009.9 |
| 20260504175022 | 71 | 222 | 2.0 | 6.0 | 0.00 | 0.00 | 0.00 | 53 | 1009.9 |
| 20260504174520 | 69 | 216 | 3.0 | 6.0 | 0.00 | 0.00 | 0.00 | 57 | 1009.8 |
| 20260504174016 | 70 | 230 | 5.0 | 8.0 | 0.00 | 0.00 | 0.00 | 55 | 1010.1 |
| 20260504173513 | 70 | 59 | 3.0 | 10.0 | 0.00 | 0.00 | 0.00 | 56 | 1009.9 |
| 20260504173011 | 70 | 233 | 4.0 | 6.0 | 0.00 | 0.00 | 0.00 | 56 | 1010.0 |
| 20260504172507 | 70 | 273 | 5.0 | 10.0 | 0.00 | 0.00 | 0.00 | 55 | 1010.1 |
| 20260504172003 | 69 | 248 | 4.0 | 10.0 | 0.00 | 0.00 | 0.00 | 58 | 1010.1 |
| 20260504171500 | 69 | 222 | 6.0 | 9.0 | 0.00 | 0.00 | 0.00 | 56 | 1010.4 |
| 20260504170957 | 69 | 115 | 2.0 | 8.0 | 0.00 | 0.00 | 0.00 | 57 | 1010.6 |
| 20260504170453 | 68 | 201 | 8.0 | 9.0 | 0.00 | 0.00 | 0.00 | 57 | 1010.6 |
| 20260504160413 | 66 | 177 | 1.0 | 9.0 | 0.00 | 0.00 | 0.00 | 60 | 1011.9 |
| 20260504150837 | 64 | 297 | 4.0 | 8.0 | 0.00 | 0.00 | 0.00 | 60 | 1012.4 |
| 20260504150333 | 62 | 218 | 2.0 | 7.0 | 0.00 | 0.00 | 0.00 | 62 | 1012.5 |
| 20260504141303 | 60 | 119 | 4.0 | 8.0 | 0.00 | 0.00 | 0.00 | 62 | 1012.8 |
| 20260504140800 | 60 | 210 | 4.0 | 6.0 | 0.00 | 0.00 | 0.00 | 60 | 1012.9 |
| 20260504140256 | 60 | 117 | 5.0 | 10.0 | 0.00 | 0.00 | 0.00 | 59 | 1013.0 |
| 20260504130725 | 59 | 244 | 1.0 | 4.0 | 0.00 | 0.00 | 0.00 | 59 | 1012.1 |
| 20260504130220 | 58 | 222 | 4.0 | 7.0 | 0.00 | 0.00 | 0.00 | 58 | 1012.4 |
| 20260504120144 | 54 | 127 | 2.0 | 3.0 | 0.00 | 0.00 | 0.00 | 63 | 1012.1 |
| 20260504110612 | 48 | 121 | 2.0 | 3.0 | 0.00 | 0.00 | 0.00 | 74 | 1011.8 |
| 20260504110108 | 48 | 115 | 2.0 | 3.0 | 0.00 | 0.00 | 0.00 | 74 | 1011.6 |
| 20260504100533 | 48 | 112 | 2.0 | 2.0 | 0.00 | 0.00 | 0.00 | 77 | 1012.0 |
| 20260504081927 | 50 | 116 | 3.0 | 3.0 | 0.00 | 0.00 | 0.00 | 74 | 1012.6 |
| 20260504081424 | 50 | 122 | 1.0 | 3.0 | 0.00 | 0.00 | 0.00 | 74 | 1012.7 |
| 20260504080920 | 51 | 118 | 3.0 | 3.0 | 0.00 | 0.00 | 0.00 | 73 | 1012.6 |
| 20260504080417 | 51 | 118 | 3.0 | 3.0 | 0.00 | 0.00 | 0.00 | 73 | 1012.6 |
| 20260504070344 | 51 | 103 | 1.0 | 2.0 | 0.00 | 0.00 | 0.00 | 70 | 1013.2 |
| 20260504050732 | 53 | 126 | 2.0 | 4.0 | 0.00 | 0.00 | 0.00 | 61 | 1014.1 |
| 20260504050229 | 53 | 84 | 2.0 | 3.0 | 0.00 | 0.00 | 0.00 | 62 | 1013.9 |
| 20260504045726 | 51 | 148 | 1.0 | 3.0 | 0.00 | 0.00 | 0.00 | 65 | 1014.3 |
| 20260504045221 | 50 | 78 | 0.0 | 0.0 | 0.00 | 0.00 | 0.00 | 74 | 1014.2 |
| 20260504044719 | 50 | 85 | 1.0 | 1.0 | 0.00 | 0.00 | 0.00 | 75 | 1014.3 |
| 20260504044216 | 50 | 86 | 0.0 | 2.0 | 0.00 | 0.00 | 0.00 | 74 | 1014.2 |
| 20260504043713 | 49 | 87 | 1.0 | 1.0 | 0.00 | 0.00 | 0.00 | 79 | 1013.9 |
| 20260504043210 | 50 | 86 | 1.0 | 1.0 | 0.00 | 0.00 | 0.00 | 78 | 1014.0 |
| 20260504042708 | 49 | 86 | 1.0 | 1.0 | 0.00 | 0.00 | 0.00 | 80 | 1013.8 |
| 20260504042204 | 50 | 87 | 0.0 | 1.0 | 0.00 | 0.00 | 0.00 | 80 | 1013.8 |
| 20260504041659 | 50 | 88 | 1.0 | 1.0 | 0.00 | 0.00 | 0.00 | 78 | 1013.7 |
| 20260504041155 | 50 | 89 | 0.0 | 1.0 | 0.00 | 0.00 | 0.00 | 77 | 1013.9 |
| 20260504040653 | 51 | 117 | 1.0 | 1.0 | 0.00 | 0.00 | 0.00 | 76 | 1014.1 |
| 20260504040150 | 51 | 100 | 1.0 | 2.0 | 0.00 | 0.00 | 0.00 | 71 | 1014.0 |
| 20260504035646 | 50 | 47 | 2.0 | 2.0 | 0.00 | 0.00 | 0.00 | 73 | 1014.2 |
| 20260504035143 | 50 | 41 | 1.0 | 2.0 | 0.00 | 0.00 | 0.00 | 72 | 1014.3 |
| 20260504034641 | 50 | 33 | 0.0 | 0.0 | 0.00 | 0.00 | 0.00 | 74 | 1014.1 |
| 20260504034138 | 50 | 33 | 0.0 | 0.0 | 0.00 | 0.00 | 0.00 | 74 | 1014.2 |
| 20260504033635 | 51 | 33 | 0.0 | 0.0 | 0.00 | 0.00 | 0.00 | 71 | 1014.4 |
| 20260504033133 | 51 | 34 | 0.0 | 1.0 | 0.00 | 0.00 | 0.00 | 72 | 1014.3 |
| 20260504032629 | 51 | 33 | 0.0 | 0.0 | 0.00 | 0.00 | 0.00 | 73 | 1014.3 |
| 20260504032126 | 51 | 33 | 0.0 | 0.0 | 0.00 | 0.00 | 0.00 | 72 | 1014.4 |
| 20260504031623 | 51 | 33 | 0.0 | 0.0 | 0.00 | 0.00 | 0.00 | 71 | 1014.3 |
| 20260504031119 | 51 | 33 | 0.0 | 1.0 | 0.00 | 0.00 | 0.00 | 69 | 1014.3 |
| 20260504030616 | 51 | 34 | 1.0 | 1.0 | 0.00 | 0.00 | 0.00 | 71 | 1014.1 |
| 20260504030113 | 51 | 345 | 0.0 | 0.0 | 0.00 | 0.00 | 0.00 | 69 | 1014.2 |
| 20260504025610 | 51 | 344 | 0.0 | 1.0 | 0.00 | 0.00 | 0.00 | 68 | 1014.0 |
| 20260504025107 | 51 | 21 | 0.0 | 1.0 | 0.00 | 0.00 | 0.00 | 61 | 1014.2 |
| 20260504024604 | 51 | 22 | 0.0 | 1.0 | 0.00 | 0.00 | 0.00 | 64 | 1014.4 |
| 20260504024101 | 51 | 21 | 0.0 | 0.0 | 0.00 | 0.00 | 0.00 | 61 | 1014.4 |
| 20260504023557 | 51 | 21 | 0.0 | 0.0 | 0.00 | 0.00 | 0.00 | 62 | 1014.2 |
| 20260504023053 | 52 | 21 | 1.0 | 1.0 | 0.00 | 0.00 | 0.00 | 58 | 1014.3 |
| 20260504022549 | 52 | 21 | 0.0 | 1.0 | 0.00 | 0.00 | 0.00 | 59 | 1014.4 |
| 20260504022046 | 52 | 21 | 0.0 | 0.0 | 0.00 | 0.00 | 0.00 | 58 | 1014.3 |
| 20260504021543 | 52 | 21 | 0.0 | 0.0 | 0.00 | 0.00 | 0.00 | 58 | 1014.3 |
| 20260504021040 | 52 | 21 | 1.0 | 1.0 | 0.00 | 0.00 | 0.00 | 59 | 1014.1 |
| 20260504020537 | 52 | 21 | 0.0 | 0.0 | 0.00 | 0.00 | 0.00 | 57 | 1014.1 |
| 20260504020034 | 53 | 20 | 0.0 | 0.0 | 0.00 | 0.00 | 0.00 | 59 | 1014.0 |
| 20260504015530 | 53 | 74 | 1.0 | 1.0 | 0.00 | 0.00 | 0.00 | 54 | 1014.0 |
| 20260504015026 | 53 | 74 | 0.0 | 1.0 | 0.00 | 0.00 | 0.00 | 52 | 1014.0 |
| 20260504014522 | 53 | 74 | 1.0 | 1.0 | 0.00 | 0.00 | 0.00 | 52 | 1013.8 |
| 20260504014020 | 54 | 69 | 0.0 | 0.0 | 0.00 | 0.00 | 0.00 | 55 | 1013.9 |
| 20260504013517 | 54 | 69 | 0.0 | 0.0 | 0.00 | 0.00 | 0.00 | 52 | 1013.8 |
| 20260504013014 | 55 | 69 | 0.0 | 0.0 | 0.00 | 0.00 | 0.00 | 50 | 1013.7 |
| 20260504012512 | 55 | 69 | 1.0 | 1.0 | 0.00 | 0.00 | 0.00 | 49 | 1013.9 |
| 20260504012009 | 55 | 69 | 0.0 | 1.0 | 0.00 | 0.00 | 0.00 | 47 | 1014.0 |
| 20260504011505 | 56 | 55 | 1.0 | 1.0 | 0.00 | 0.00 | 0.00 | 48 | 1013.9 |
| 20260504011001 | 56 | 63 | 1.0 | 2.0 | 0.00 | 0.00 | 0.00 | 45 | 1013.9 |
| 20260504010457 | 56 | 46 | 2.0 | 2.0 | 0.00 | 0.00 | 0.00 | 45 | 1014.2 |
| 20260504005953 | 57 | 22 | 0.0 | 0.0 | 0.00 | 0.00 | 0.00 | 46 | 1014.0 |
| 20260504005450 | 57 | 21 | 0.0 | 0.0 | 0.00 | 0.00 | 0.00 | 43 | 1014.1 |
| 20260504004948 | 57 | 21 | 2.0 | 2.0 | 0.00 | 0.00 | 0.00 | 43 | 1014.3 |
| 20260504004445 | 57 | 350 | 0.0 | 0.0 | 0.00 | 0.00 | 0.00 | 44 | 1014.2 |
| 20260504003943 | 57 | 349 | 0.0 | 1.0 | 0.00 | 0.00 | 0.00 | 45 | 1014.1 |
| 20260504003438 | 58 | 333 | 0.0 | 0.0 | 0.00 | 0.00 | 0.00 | 43 | 1014.2 |
| 20260504002935 | 58 | 332 | 2.0 | 2.0 | 0.00 | 0.00 | 0.00 | 42 | 1014.0 |
| 20260504002432 | 58 | 22 | 1.0 | 3.0 | 0.00 | 0.00 | 0.00 | 41 | 1013.9 |
| 20260504001930 | 58 | 320 | 3.0 | 3.0 | 0.00 | 0.00 | 0.00 | 44 | 1014.1 |
| 20260504001427 | 58 | 13 | 2.0 | 3.0 | 0.00 | 0.00 | 0.00 | 47 | 1014.2 |
| 20260504000924 | 58 | 352 | 2.0 | 2.0 | 0.00 | 0.00 | 0.00 | 46 | 1014.1 |
| 20260504000423 | 58 | 91 | 1.0 | 1.0 | 0.00 | 0.00 | 0.00 | 44 | 1014.0 |
| 20260503235918 | 58 | 91 | 1.0 | 1.0 | 0.00 | 0.00 | 0.00 | 42 | 1014.0 |
| 20260503235416 | 59 | 73 | 0.0 | 1.0 | 0.00 | 0.00 | 0.00 | 41 | 1014.1 |
| 20260503234913 | 59 | 108 | 0.0 | 1.0 | 0.00 | 0.00 | 0.00 | 40 | 1014.2 |
| 20260503234411 | 59 | 151 | 0.0 | 2.0 | 0.00 | 0.00 | 0.00 | 42 | 1014.3 |
| 20260503233909 | 60 | 267 | 0.0 | 2.0 | 0.00 | 0.00 | 0.00 | 41 | 1013.9 |
| 20260503233405 | 60 | 150 | 2.0 | 2.0 | 0.00 | 0.00 | 0.00 | 38 | 1014.1 |
| 20260503232901 | 60 | 197 | 1.0 | 4.0 | 0.00 | 0.00 | 0.00 | 38 | 1014.1 |
| 20260503232358 | 60 | 68 | 2.0 | 2.0 | 0.00 | 0.00 | 0.00 | 39 | 1014.1 |
| 20260503231856 | 60 | 93 | 1.0 | 1.0 | 0.00 | 0.00 | 0.00 | 39 | 1014.3 |
| 20260503231353 | 60 | 230 | 1.0 | 2.0 | 0.00 | 0.00 | 0.00 | 38 | 1014.5 |
| 20260503230849 | 60 | 188 | 3.0 | 4.0 | 0.00 | 0.00 | 0.00 | 36 | 1014.2 |
| 20260503230346 | 60 | 137 | 1.0 | 2.0 | 0.00 | 0.00 | 0.00 | 37 | 1014.4 |
| 20260503225844 | 61 | 251 | 1.0 | 2.0 | 0.00 | 0.00 | 0.00 | 39 | 1014.6 |
| 20260503225339 | 61 | 293 | 1.0 | 2.0 | 0.00 | 0.00 | 0.00 | 36 | 1014.7 |
| 20260503224836 | 61 | 208 | 2.0 | 6.0 | 0.00 | 0.00 | 0.00 | 35 | 1014.7 |
| 20260503224333 | 61 | 301 | 3.0 | 4.0 | 0.00 | 0.00 | 0.00 | 35 | 1014.6 |
| 20260503223831 | 61 | 259 | 0.0 | 4.0 | 0.00 | 0.00 | 0.00 | 37 | 1014.9 |
| 20260503223328 | 61 | 153 | 2.0 | 3.0 | 0.00 | 0.00 | 0.00 | 37 | 1015.0 |
| 20260503222824 | 61 | 237 | 2.0 | 4.0 | 0.00 | 0.00 | 0.00 | 34 | 1014.9 |
| 20260503222323 | 61 | 231 | 2.0 | 7.0 | 0.00 | 0.00 | 0.00 | 35 | 1015.0 |
| 20260503221820 | 62 | 215 | 1.0 | 4.0 | 0.00 | 0.00 | 0.00 | 36 | 1015.1 |
| 20260503221319 | 63 | 215 | 7.0 | 13.0 | 0.00 | 0.00 | 0.00 | 35 | 1015.0 |
| 20260503220814 | 63 | 180 | 2.0 | 3.0 | 0.00 | 0.00 | 0.00 | 38 | 1015.1 |
| 20260503220312 | 64 | 209 | 4.0 | 7.0 | 0.00 | 0.00 | 0.00 | 34 | 1015.0 |
| 20260503215808 | 63 | 49 | 1.0 | 4.0 | 0.00 | 0.00 | 0.00 | 34 | 1015.0 |
| 20260503215305 | 64 | 308 | 3.0 | 6.0 | 0.00 | 0.00 | 0.00 | 35 | 1014.7 |
| 20260503214803 | 64 | 41 | 2.0 | 9.0 | 0.00 | 0.00 | 0.00 | 35 | 1014.9 |
| 20260503214300 | 65 | 213 | 2.0 | 6.0 | 0.00 | 0.00 | 0.00 | 32 | 1014.8 |
| 20260503213758 | 64 | 209 | 1.0 | 4.0 | 0.00 | 0.00 | 0.00 | 32 | 1015.1 |
| 20260503213255 | 66 | 245 | 3.0 | 4.0 | 0.00 | 0.00 | 0.00 | 31 | 1015.1 |
| 20260503212752 | 65 | 31 | 0.0 | 1.0 | 0.00 | 0.00 | 0.00 | 43 | 1015.0 |
| 20260503212249 | 64 | 236 | 0.0 | 8.0 | 0.00 | 0.00 | 0.00 | 33 | 1015.1 |
| 20260503211747 | 64 | 354 | 1.0 | 8.0 | 0.00 | 0.00 | 0.00 | 34 | 1015.1 |
| 20260503211243 | 64 | 147 | 4.0 | 6.0 | 0.00 | 0.00 | 0.00 | 32 | 1015.1 |
| 20260503210738 | 65 | 229 | 5.0 | 8.0 | 0.00 | 0.00 | 0.00 | 31 | 1015.1 |
| 20260503210236 | 64 | 253 | 0.0 | 1.0 | 0.00 | 0.00 | 0.00 | 38 | 1015.1 |
| 20260503205731 | 63 | 196 | 1.0 | 3.0 | 0.00 | 0.00 | 0.00 | 32 | 1015.1 |
| 20260503205227 | 64 | 198 | 5.0 | 7.0 | 0.00 | 0.00 | 0.00 | 32 | 1015.0 |
| 20260503204724 | 64 | 200 | 3.0 | 7.0 | 0.00 | 0.00 | 0.00 | 34 | 1015.0 |
| 20260503204222 | 63 | 163 | 2.0 | 7.0 | 0.00 | 0.00 | 0.00 | 36 | 1015.0 |
| 20260503203719 | 63 | 264 | 1.0 | 4.0 | 0.00 | 0.00 | 0.00 | 37 | 1015.1 |
| 20260503203216 | 62 | 199 | 4.0 | 9.0 | 0.00 | 0.00 | 0.00 | 35 | 1015.3 |
| 20260503202714 | 63 | 216 | 3.0 | 7.0 | 0.00 | 0.00 | 0.00 | 32 | 1015.6 |
| 20260503202211 | 63 | 218 | 2.0 | 6.0 | 0.00 | 0.00 | 0.00 | 34 | 1015.6 |
| 20260503201709 | 63 | 149 | 2.0 | 4.0 | 0.00 | 0.00 | 0.00 | 32 | 1015.5 |
| 20260503201206 | 63 | 267 | 2.0 | 6.0 | 0.00 | 0.00 | 0.00 | 33 | 1015.7 |
| 20260503200702 | 62 | 320 | 4.0 | 9.0 | 0.00 | 0.00 | 0.00 | 35 | 1015.8 |
| 20260503200159 | 63 | 296 | 2.0 | 4.0 | 0.00 | 0.00 | 0.00 | 36 | 1015.9 |
| 20260503195656 | 62 | 242 | 2.0 | 4.0 | 0.00 | 0.00 | 0.00 | 34 | 1015.9 |
| 20260503195153 | 62 | 175 | 4.0 | 7.0 | 0.00 | 0.00 | 0.00 | 33 | 1016.2 |
| 20260503194650 | 63 | 298 | 2.0 | 3.0 | 0.00 | 0.00 | 0.00 | 39 | 1016.2 |
| 20260503194145 | 62 | 177 | 3.0 | 6.0 | 0.00 | 0.00 | 0.00 | 39 | 1016.3 |
| 20260503193642 | 62 | 162 | 5.0 | 8.0 | 0.00 | 0.00 | 0.00 | 34 | 1016.7 |
| 20260503193138 | 63 | 227 | 4.0 | 11.0 | 0.00 | 0.00 | 0.00 | 33 | 1016.6 |
| 20260503192633 | 62 | 167 | 2.0 | 7.0 | 0.00 | 0.00 | 0.00 | 37 | 1016.6 |
| 20260503192129 | 62 | 234 | 5.0 | 6.0 | 0.00 | 0.00 | 0.00 | 34 | 1016.6 |